Tiempo cada hora Barranca de Upía

Hoy, 28 Febrero, Domingo

Tiempo Temperatura Precipitaciones Viento Presión Humedad
00:00 +28°C° 0 mm 1 mps 738 mmHg 58%
01:00 +28°C° 0 mm 1 mps 738 mmHg 60%
02:00 +28°C° 0 mm 1 mps 737 mmHg 61%
03:00 +27°C° 0 mm 1 mps 737 mmHg 62%
04:00 +27°C° 0 mm 1 mps 737 mmHg 62%
05:00 +28°C° 0 mm 1 mps 737 mmHg 60%
06:00 +28°C° 0 mm 1 mps 738 mmHg 58%
07:00 +29°C° 0 mm 1 mps 738 mmHg 56%
08:00 +31°C° 0 mm 2 mps 739 mmHg 50%
09:00 +33°C° 0 mm 4 mps 739 mmHg 44%
10:00 +35°C° 0 mm 5 mps 740 mmHg 38%
11:00 +36°C° 0 mm 5 mps 739 mmHg 36%
12:00 +36°C° 0 mm 5 mps 738 mmHg 35%
13:00 +37°C° 0 mm 5 mps 737 mmHg 33%
14:00 +37°C° 0 mm 4 mps 736 mmHg 33%
15:00 +37°C° 0 mm 4 mps 735 mmHg 33%
16:00 +37°C° 0 mm 4 mps 734 mmHg 32%
17:00 +36°C° 0 mm 3 mps 735 mmHg 36%
18:00 +34°C° 0 mm 2 mps 735 mmHg 39%
19:00 +32°C° 0 mm 2 mps 736 mmHg 42%
20:00 +31°C° 0 mm 2 mps 736 mmHg 43%
21:00 +31°C° 0 mm 2 mps 737 mmHg 45%
22:00 +30°C° 0 mm 2 mps 738 mmHg 46%
23:00 +30°C° 0 mm 1 mps 737 mmHg 48%

Mañana, 1 Marzo, Lunes

Tiempo Temperatura Precipitaciones Viento Presión Humedad
00:00 +29°C° 0 mm 1 mps 737 mmHg 49%
01:00 +28°C° 0 mm 1 mps 736 mmHg 51%
02:00 +28°C° 0 mm 1 mps 736 mmHg 52%
03:00 +28°C° 0 mm 1 mps 736 mmHg 52%
04:00 +28°C° 0 mm 1 mps 736 mmHg 53%
05:00 +28°C° 0 mm 1 mps 736 mmHg 52%
06:00 +28°C° 0 mm 2 mps 737 mmHg 51%
07:00 +29°C° 0 mm 2 mps 738 mmHg 50%
08:00 +30°C° 0 mm 3 mps 738 mmHg 44%
09:00 +33°C° 0 mm 4 mps 739 mmHg 39%
10:00 +35°C° 0 mm 5 mps 739 mmHg 33%
11:00 +36°C° 0 mm 5 mps 738 mmHg 31%
12:00 +37°C° 0 mm 4 mps 737 mmHg 29%
13:00 +38°C° 0 mm 4 mps 736 mmHg 27%
14:00 +38°C° 0 mm 4 mps 736 mmHg 27%
15:00 +38°C° 0 mm 3 mps 735 mmHg 27%
16:00 +37°C° 0 mm 3 mps 735 mmHg 26%
17:00 +36°C° 0 mm 3 mps 735 mmHg 30%
18:00 +34°C° 0 mm 2 mps 736 mmHg 33%
19:00 +32°C° 0 mm 2 mps 736 mmHg 36%
20:00 +31°C° 0 mm 2 mps 737 mmHg 38%
21:00 +30°C° 0 mm 2 mps 737 mmHg 40%
22:00 +29°C° 0 mm 1 mps 738 mmHg 42%
23:00 +28°C° 0 mm 1 mps 738 mmHg 44%

Pasado mañana, 2 Marzo, Martes

Tiempo Temperatura Precipitaciones Viento Presión Humedad
00:00 +28°C° 0 mm 1 mps 737 mmHg 45%
01:00 +27°C° 0 mm 1 mps 737 mmHg 47%
02:00 +27°C° 0 mm 1 mps 737 mmHg 49%
03:00 +26°C° 0 mm 1 mps 736 mmHg 51%
04:00 +26°C° 0 mm 1 mps 736 mmHg 52%
05:00 +26°C° 0 mm 1 mps 737 mmHg 51%
06:00 +27°C° 0 mm 1 mps 738 mmHg 50%
07:00 +27°C° 0 mm 1 mps 739 mmHg 49%
08:00 +30°C° 0 mm 2 mps 739 mmHg 43%
09:00 +33°C° 0 mm 3 mps 739 mmHg 37%
10:00 +35°C° 0 mm 5 mps 739 mmHg 31%
11:00 +36°C° 0 mm 4 mps 739 mmHg 29%
12:00 +37°C° 0 mm 4 mps 738 mmHg 27%
13:00 +40°C° 0 mm 4 mps 737 mmHg 25%
14:00 +38°C° 0 mm 4 mps 736 mmHg 26%
15:00 +38°C° 0 mm 4 mps 736 mmHg 26%
16:00 +38°C° 0 mm 4 mps 735 mmHg 26%
17:00 +36°C° 0 mm 3 mps 736 mmHg 30%
18:00 +35°C° 0 mm 2 mps 737 mmHg 34%
19:00 +32°C° 0 mm 2 mps 737 mmHg 37%
20:00 +31°C° 0 mm 1 mps 738 mmHg 38%
21:00 +31°C° 0 mm 1 mps 738 mmHg 39%
22:00 +30°C° 0 mm 1 mps 739 mmHg 39%
23:00 +30°C° 0 mm 1 mps 739 mmHg 40%

3 Marzo, Miércoles

Tiempo Temperatura Precipitaciones Viento Presión Humedad
00:00 +29°C° 0 mm 1 mps 738 mmHg 41%
01:00 +29°C° 0 mm 1 mps 738 mmHg 42%
02:00 +29°C° 0 mm 1 mps 738 mmHg 43%
03:00 +27°C° 0 mm 0 mps 738 mmHg 43%
04:00 +27°C° 0 mm 0 mps 738 mmHg 44%
05:00 +27°C° 0 mm 0 mps 739 mmHg 44%
06:00 +27°C° 0 mm 0 mps 740 mmHg 44%
07:00 +27°C° 0 mm 0 mps 740 mmHg 44%
08:00 +30°C° 0 mm 1 mps 741 mmHg 39%
09:00 +32°C° 0 mm 2 mps 741 mmHg 35%
10:00 +34°C° 0 mm 2 mps 741 mmHg 30%
11:00 +36°C° 0 mm 2 mps 740 mmHg 27%
12:00 +37°C° 0 mm 2 mps 740 mmHg 24%
13:00 +39°C° 0 mm 3 mps 739 mmHg 22%
14:00 +39°C° 0 mm 2 mps 738 mmHg 22%
15:00 +39°C° 0 mm 2 mps 737 mmHg 22%
16:00 +39°C° 0 mm 2 mps 737 mmHg 23%
17:00 +36°C° 0 mm 2 mps 737 mmHg 27%
18:00 +34°C° 0 mm 2 mps 737 mmHg 31%
19:00 +31°C° 0 mm 2 mps 738 mmHg 35%
20:00 +30°C° 0 mm 2 mps 739 mmHg 36%
21:00 +30°C° 0 mm 1 mps 739 mmHg 38%
22:00 +30°C° 0 mm 1 mps 740 mmHg 39%
23:00 +29°C° 0 mm 1 mps 740 mmHg 40%

4 Marzo, Jueves

Tiempo Temperatura Precipitaciones Viento Presión Humedad
00:00 +29°C° 0 mm 1 mps 739 mmHg 41%
01:00 +29°C° 0 mm 1 mps 739 mmHg 42%
02:00 +28°C° 0 mm 1 mps 739 mmHg 43%
03:00 +28°C° 0 mm 1 mps 739 mmHg 44%
04:00 +27°C° 0 mm 1 mps 739 mmHg 45%
05:00 +28°C° 0 mm 1 mps 739 mmHg 45%
06:00 +28°C° 0 mm 1 mps 740 mmHg 44%
07:00 +26°C° 0 mm 0 mps 741 mmHg 44%
08:00 +30°C° 0 mm 1 mps 741 mmHg 39%
09:00 +33°C° 0 mm 1 mps 741 mmHg 34%
10:00 +35°C° 0 mm 1 mps 742 mmHg 29%
11:00 +36°C° 0 mm 1 mps 741 mmHg 26%
12:00 +39°C° 0 mm 2 mps 739 mmHg 24%
13:00 +40°C° 0 mm 2 mps 738 mmHg 21%
14:00 +40°C° 0 mm 2 mps 738 mmHg 22%
15:00 +39°C° 0 mm 2 mps 737 mmHg 23%
16:00 +39°C° 0 mm 3 mps 736 mmHg 24%
17:00 +37°C° 0 mm 2 mps 737 mmHg 27%
18:00 +35°C° 0 mm 2 mps 737 mmHg 31%
19:00 +32°C° 0 mm 1 mps 737 mmHg 34%
20:00 +32°C° 0 mm 1 mps 738 mmHg 35%
21:00 +32°C° 0 mm 1 mps 739 mmHg 36%
22:00 +32°C° 0 mm 1 mps 739 mmHg 36%
23:00 +31°C° 0 mm 1 mps 739 mmHg 38%

5 Marzo, Viernes

Tiempo Temperatura Precipitaciones Viento Presión Humedad
00:00 +31°C° 0 mm 1 mps 739 mmHg 39%
01:00 +30°C° 0 mm 1 mps 739 mmHg 41%
02:00 +30°C° 0 mm 1 mps 739 mmHg 47%
03:00 +29°C° 0 mm 1 mps 738 mmHg 53%
04:00 +26°C° 0 mm 0 mps 738 mmHg 59%
05:00 +26°C° 0 mm 0 mps 739 mmHg 60%
06:00 +26°C° 0 mm 0 mps 739 mmHg 62%
07:00 +26°C° 0 mm 0 mps 740 mmHg 64%
08:00 +29°C° 0 mm 0 mps 740 mmHg 55%
09:00 +33°C° 0 mm 1 mps 740 mmHg 46%
10:00 +36°C° 0 mm 1 mps 741 mmHg 37%
11:00 +36°C° 0 mm 1 mps 740 mmHg 35%
12:00 +36°C° 0 mm 1 mps 739 mmHg 34%
13:00 +37°C° 0 mm 1 mps 738 mmHg 33%
14:00 +37°C° 0 mm 1 mps 737 mmHg 32%
15:00 +37°C° 0 mm 1 mps 736 mmHg 31%
16:00 +37°C° 0 mm 1 mps 736 mmHg 30%
17:00 +36°C° 0 mm 1 mps 736 mmHg 35%
18:00 +34°C° 0 mm 1 mps 736 mmHg 39%
19:00 +32°C° 0 mm 1 mps 736 mmHg 43%
20:00 +32°C° 0 mm 1 mps 737 mmHg 44%
21:00 +32°C° 0 mm 1 mps 737 mmHg 45%
22:00 +31°C° 0 mm 1 mps 738 mmHg 46%
23:00 +31°C° 0 mm 1 mps 738 mmHg 47%
Mostrar más

Necesitamos Su Consentimiento

Meteoprog y nuestros Proveedores de Servicios pueden almacenar y acceder a sus datos personales como cookies, identificadores de dispositivo u otras tecnologías similares de su dispositivo y procesar dichos datos para personalizar contenido y anuncios, además de ofrecer funciones de redes sociales y analizar el tráfico.

  • Almacenar y/o acceder a información en su dispositivo

    Se puede almacenar o acceder a cookies, identificadores de dispositivo u otra información de su dispositivo para los fines anteriormente indicados.

  • Anuncios y contenido personalizados, medición de anuncios y contenido, percepciones del público, y desarrollo de productos

    Los anuncios y el contenido pueden personalizarse en base a su perfil. Se pueden añadir más datos para personalizar mejor los anuncios y contenidos. Se puede medir el rendimiento de los anuncios y contenidos. Se puede obtener la percepción sobre el público que ha visto los anuncios y contenidos. Dichos datos pueden usarse para desarrollar o mejorar la experiencia del usuario, sistemas y software.

Al hacer clic en ‘Estoy De Acuerdo’ usted permitirá el uso de las cookies, identificadores de dispositivo, balizas web u otras tecnologías similares indicadas. Su configuración puede cambiarse desde el navegador de su dispositivo.

Para ciertos fines, los intereses legítimos pueden ser considerados por encima del consentimiento. Puede leer más sobre ello en nuestra Política de Privacidad y Cookies.